ID,Occasion,Date,Hour,VMAC,lnVMAC,Day,Day1,Day2,Day3,Day4,Day5,Day6,Day7,AD,Age,Female,Educ,VO2,BMI
1,1,12/20/2012,8:00 AM,243.6,5.50,1,1,0,0,0,0,0,0,1,67,0,20,1.99,25.39
1,2,12/20/2012,9:00 AM,212.8,5.36,1,1,0,0,0,0,0,0,1,67,0,20,1.99,25.39
1,3,12/20/2012,10:00 AM,34.6,3.54,1,1,0,0,0,0,0,0,1,67,0,20,1.99,25.39
1,4,12/20/2012,11:00 AM,231.7,5.45,1,1,0,0,0,0,0,0,1,67,0,20,1.99,25.39
1,5,12/20/2012,12:00 PM,748,6.62,1,1,0,0,0,0,0,0,1,67,0,20,1.99,25.39
1,6,12/20/2012,1:00 PM,194.5,5.27,1,1,0,0,0,0,0,0,1,67,0,20,1.99,25.39
1,7,12/20/2012,2:00 PM,78,4.36,1,1,0,0,0,0,0,0,1,67,0,20,1.99,25.39
1,8,12/20/2012,3:00 PM,231.3,5.44,1,1,0,0,0,0,0,0,1,67,0,20,1.99,25.39
1,9,12/20/2012,4:00 PM,128.7,4.86,1,1,0,0,0,0,0,0,1,67,0,20,1.99,25.39
1,10,12/20/2012,5:00 PM,211.1,5.35,1,1,0,0,0,0,0,0,1,67,0,20,1.99,25.39
1,11,12/20/2012,6:00 PM,111.3,4.71,1,1,0,0,0,0,0,0,1,67,0,20,1.99,25.39
1,12,12/20/2012,7:00 PM,123.2,4.81,1,1,0,0,0,0,0,0,1,67,0,20,1.99,25.39
1,13,12/20/2012,8:00 PM,74.6,4.31,1,1,0,0,0,0,0,0,1,67,0,20,1.99,25.39
1,14,12/20/2012,9:00 PM,120.3,4.79,1,1,0,0,0,0,0,0,1,67,0,20,1.99,25.39
1,15,12/20/2012,10:00 PM,145.5,4.98,1,1,0,0,0,0,0,0,1,67,0,20,1.99,25.39
1,16,12/21/2012,8:00 AM,183.5,5.21,2,0,1,0,0,0,0,0,1,67,0,20,1.99,25.39
1,17,12/21/2012,9:00 AM,109.3,4.69,2,0,1,0,0,0,0,0,1,67,0,20,1.99,25.39
1,18,12/21/2012,10:00 AM,193.3,5.26,2,0,1,0,0,0,0,0,1,67,0,20,1.99,25.39
1,19,12/21/2012,11:00 AM,47.9,3.87,2,0,1,0,0,0,0,0,1,67,0,20,1.99,25.39
1,20,12/21/2012,12:00 PM,194.7,5.27,2,0,1,0,0,0,0,0,1,67,0,20,1.99,25.39
1,21,12/21/2012,1:00 PM,407.6,6.01,2,0,1,0,0,0,0,0,1,67,0,20,1.99,25.39
1,22,12/21/2012,2:00 PM,707.1,6.56,2,0,1,0,0,0,0,0,1,67,0,20,1.99,25.39
1,23,12/21/2012,3:00 PM,383.3,5.95,2,0,1,0,0,0,0,0,1,67,0,20,1.99,25.39
1,24,12/21/2012,4:00 PM,154.7,5.04,2,0,1,0,0,0,0,0,1,67,0,20,1.99,25.39
1,25,12/21/2012,5:00 PM,231.6,5.45,2,0,1,0,0,0,0,0,1,67,0,20,1.99,25.39
1,26,12/21/2012,6:00 PM,234.1,5.46,2,0,1,0,0,0,0,0,1,67,0,20,1.99,25.39
1,27,12/21/2012,7:00 PM,190.8,5.25,2,0,1,0,0,0,0,0,1,67,0,20,1.99,25.39
1,28,12/21/2012,8:00 PM,78,4.36,2,0,1,0,0,0,0,0,1,67,0,20,1.99,25.39
1,29,12/21/2012,9:00 PM,88.6,4.48,2,0,1,0,0,0,0,0,1,67,0,20,1.99,25.39
1,30,12/21/2012,10:00 PM,171,5.14,2,0,1,0,0,0,0,0,1,67,0,20,1.99,25.39
1,31,12/22/2012,8:00 AM,122.3,4.81,3,0,0,1,0,0,0,0,1,67,0,20,1.99,25.39
1,32,12/22/2012,9:00 AM,111.2,4.71,3,0,0,1,0,0,0,0,1,67,0,20,1.99,25.39
1,33,12/22/2012,10:00 AM,48.1,3.87,3,0,0,1,0,0,0,0,1,67,0,20,1.99,25.39
1,34,12/22/2012,11:00 AM,420,6.04,3,0,0,1,0,0,0,0,1,67,0,20,1.99,25.39
1,35,12/22/2012,12:00 PM,229.2,5.43,3,0,0,1,0,0,0,0,1,67,0,20,1.99,25.39
1,36,12/22/2012,1:00 PM,710,6.57,3,0,0,1,0,0,0,0,1,67,0,20,1.99,25.39
1,37,12/22/2012,2:00 PM,504.4,6.22,3,0,0,1,0,0,0,0,1,67,0,20,1.99,25.39
1,38,12/22/2012,3:00 PM,57.2,4.05,3,0,0,1,0,0,0,0,1,67,0,20,1.99,25.39
1,39,12/22/2012,4:00 PM,417.9,6.04,3,0,0,1,0,0,0,0,1,67,0,20,1.99,25.39
1,40,12/22/2012,5:00 PM,285.9,5.66,3,0,0,1,0,0,0,0,1,67,0,20,1.99,25.39
1,41,12/22/2012,6:00 PM,78,4.36,3,0,0,1,0,0,0,0,1,67,0,20,1.99,25.39
1,42,12/22/2012,7:00 PM,178.6,5.19,3,0,0,1,0,0,0,0,1,67,0,20,1.99,25.39
1,43,12/22/2012,8:00 PM,198.8,5.29,3,0,0,1,0,0,0,0,1,67,0,20,1.99,25.39
1,44,12/22/2012,9:00 PM,53.2,3.97,3,0,0,1,0,0,0,0,1,67,0,20,1.99,25.39
1,45,12/22/2012,10:00 PM,116.9,4.76,3,0,0,1,0,0,0,0,1,67,0,20,1.99,25.39
1,46,12/22/2012,11:00 PM,38,3.64,3,0,0,1,0,0,0,0,1,67,0,20,1.99,25.39
1,48,12/23/2012,9:00 AM,350.3,5.86,4,0,0,0,1,0,0,0,1,67,0,20,1.99,25.39
1,49,12/23/2012,10:00 AM,206.1,5.33,4,0,0,0,1,0,0,0,1,67,0,20,1.99,25.39
1,50,12/23/2012,11:00 AM,134.2,4.90,4,0,0,0,1,0,0,0,1,67,0,20,1.99,25.39
1,51,12/23/2012,12:00 PM,238,5.47,4,0,0,0,1,0,0,0,1,67,0,20,1.99,25.39
1,52,12/23/2012,1:00 PM,365,5.90,4,0,0,0,1,0,0,0,1,67,0,20,1.99,25.39
1,53,12/23/2012,2:00 PM,191.4,5.25,4,0,0,0,1,0,0,0,1,67,0,20,1.99,25.39
1,54,12/23/2012,3:00 PM,213.3,5.36,4,0,0,0,1,0,0,0,1,67,0,20,1.99,25.39
1,55,12/23/2012,4:00 PM,266.6,5.59,4,0,0,0,1,0,0,0,1,67,0,20,1.99,25.39
1,56,12/23/2012,5:00 PM,151.2,5.02,4,0,0,0,1,0,0,0,1,67,0,20,1.99,25.39
1,57,12/23/2012,6:00 PM,182.5,5.21,4,0,0,0,1,0,0,0,1,67,0,20,1.99,25.39
1,58,12/23/2012,7:00 PM,149.3,5.01,4,0,0,0,1,0,0,0,1,67,0,20,1.99,25.39
1,59,12/23/2012,8:00 PM,140.8,4.95,4,0,0,0,1,0,0,0,1,67,0,20,1.99,25.39
1,60,12/23/2012,9:00 PM,73.3,4.29,4,0,0,0,1,0,0,0,1,67,0,20,1.99,25.39
1,61,12/23/2012,10:00 PM,65.9,4.19,4,0,0,0,1,0,0,0,1,67,0,20,1.99,25.39
1,62,12/23/2012,11:00 PM,169,5.13,4,0,0,0,1,0,0,0,1,67,0,20,1.99,25.39
1,63,12/24/2012,12:00 AM,116,4.75,5,0,0,0,0,1,0,0,1,67,0,20,1.99,25.39
1,64,12/24/2012,9:00 AM,195.2,5.27,5,0,0,0,0,1,0,0,1,67,0,20,1.99,25.39
1,65,12/24/2012,10:00 AM,156.4,5.05,5,0,0,0,0,1,0,0,1,67,0,20,1.99,25.39
1,66,12/24/2012,11:00 AM,136.3,4.91,5,0,0,0,0,1,0,0,1,67,0,20,1.99,25.39
1,67,12/24/2012,12:00 PM,115.5,4.75,5,0,0,0,0,1,0,0,1,67,0,20,1.99,25.39
1,68,12/24/2012,1:00 PM,146.3,4.99,5,0,0,0,0,1,0,0,1,67,0,20,1.99,25.39
1,69,12/24/2012,2:00 PM,196,5.28,5,0,0,0,0,1,0,0,1,67,0,20,1.99,25.39
1,70,12/24/2012,3:00 PM,133.1,4.89,5,0,0,0,0,1,0,0,1,67,0,20,1.99,25.39
1,71,12/24/2012,4:00 PM,174.1,5.16,5,0,0,0,0,1,0,0,1,67,0,20,1.99,25.39
1,72,12/24/2012,5:00 PM,214.9,5.37,5,0,0,0,0,1,0,0,1,67,0,20,1.99,25.39
1,73,12/24/2012,6:00 PM,806.7,6.69,5,0,0,0,0,1,0,0,1,67,0,20,1.99,25.39
1,74,12/24/2012,7:00 PM,450.7,6.11,5,0,0,0,0,1,0,0,1,67,0,20,1.99,25.39
1,75,12/24/2012,8:00 PM,129.4,4.86,5,0,0,0,0,1,0,0,1,67,0,20,1.99,25.39
1,76,12/24/2012,9:00 PM,266.9,5.59,5,0,0,0,0,1,0,0,1,67,0,20,1.99,25.39
1,77,12/24/2012,10:00 PM,131.1,4.88,5,0,0,0,0,1,0,0,1,67,0,20,1.99,25.39
1,79,12/25/2012,7:00 AM,71.6,4.27,6,0,0,0,0,0,1,0,1,67,0,20,1.99,25.39
1,80,12/25/2012,8:00 AM,83.7,4.43,6,0,0,0,0,0,1,0,1,67,0,20,1.99,25.39
1,81,12/25/2012,9:00 AM,440.7,6.09,6,0,0,0,0,0,1,0,1,67,0,20,1.99,25.39
1,82,12/25/2012,10:00 AM,361.5,5.89,6,0,0,0,0,0,1,0,1,67,0,20,1.99,25.39
1,83,12/25/2012,11:00 AM,202.7,5.31,6,0,0,0,0,0,1,0,1,67,0,20,1.99,25.39
1,84,12/25/2012,12:00 PM,212.2,5.36,6,0,0,0,0,0,1,0,1,67,0,20,1.99,25.39
1,85,12/25/2012,1:00 PM,34.3,3.54,6,0,0,0,0,0,1,0,1,67,0,20,1.99,25.39
1,86,12/25/2012,2:00 PM,158.7,5.07,6,0,0,0,0,0,1,0,1,67,0,20,1.99,25.39
1,87,12/25/2012,3:00 PM,178.6,5.19,6,0,0,0,0,0,1,0,1,67,0,20,1.99,25.39
1,88,12/25/2012,4:00 PM,191.5,5.25,6,0,0,0,0,0,1,0,1,67,0,20,1.99,25.39
1,89,12/25/2012,5:00 PM,138.2,4.93,6,0,0,0,0,0,1,0,1,67,0,20,1.99,25.39
1,90,12/25/2012,6:00 PM,81.6,4.40,6,0,0,0,0,0,1,0,1,67,0,20,1.99,25.39
1,91,12/25/2012,7:00 PM,298.7,5.70,6,0,0,0,0,0,1,0,1,67,0,20,1.99,25.39
1,92,12/25/2012,8:00 PM,115.9,4.75,6,0,0,0,0,0,1,0,1,67,0,20,1.99,25.39
1,93,12/25/2012,9:00 PM,64,4.16,6,0,0,0,0,0,1,0,1,67,0,20,1.99,25.39
1,94,12/25/2012,10:00 PM,74,4.30,6,0,0,0,0,0,1,0,1,67,0,20,1.99,25.39
1,95,12/25/2012,11:00 PM,19.1,2.95,6,0,0,0,0,0,1,0,1,67,0,20,1.99,25.39
2,1,01/26/2013,6:00 AM,137.7,4.93,1,1,0,0,0,0,0,0,1,79,1,14,1.16,38.38
2,2,01/26/2013,7:00 AM,21.8,3.08,1,1,0,0,0,0,0,0,1,79,1,14,1.16,38.38
2,3,01/26/2013,8:00 AM,24.9,3.21,1,1,0,0,0,0,0,0,1,79,1,14,1.16,38.38
2,4,01/26/2013,9:00 AM,25.2,3.23,1,1,0,0,0,0,0,0,1,79,1,14,1.16,38.38
2,5,01/26/2013,10:00 AM,114.1,4.74,1,1,0,0,0,0,0,0,1,79,1,14,1.16,38.38
2,6,01/26/2013,11:00 AM,13.1,2.57,1,1,0,0,0,0,0,0,1,79,1,14,1.16,38.38
2,7,01/26/2013,12:00 PM,84.5,4.44,1,1,0,0,0,0,0,0,1,79,1,14,1.16,38.38
2,8,01/26/2013,1:00 PM,21.1,3.05,1,1,0,0,0,0,0,0,1,79,1,14,1.16,38.38
2,9,01/26/2013,2:00 PM,43.7,3.78,1,1,0,0,0,0,0,0,1,79,1,14,1.16,38.38
2,10,01/26/2013,3:00 PM,6.8,1.92,1,1,0,0,0,0,0,0,1,79,1,14,1.16,38.38
2,11,01/26/2013,4:00 PM,1.6,0.47,1,1,0,0,0,0,0,0,1,79,1,14,1.16,38.38
2,12,01/26/2013,5:00 PM,56.3,4.03,1,1,0,0,0,0,0,0,1,79,1,14,1.16,38.38
2,13,01/26/2013,6:00 PM,22.9,3.13,1,1,0,0,0,0,0,0,1,79,1,14,1.16,38.38
2,15,01/27/2013,6:00 AM,86.8,4.46,2,0,1,0,0,0,0,0,1,79,1,14,1.16,38.38
2,16,01/27/2013,7:00 AM,160.7,5.08,2,0,1,0,0,0,0,0,1,79,1,14,1.16,38.38
2,17,01/27/2013,8:00 AM,24.5,3.20,2,0,1,0,0,0,0,0,1,79,1,14,1.16,38.38
2,18,01/27/2013,9:00 AM,76.8,4.34,2,0,1,0,0,0,0,0,1,79,1,14,1.16,38.38
2,19,01/27/2013,10:00 AM,10.4,2.34,2,0,1,0,0,0,0,0,1,79,1,14,1.16,38.38
2,20,01/27/2013,11:00 AM,6,1.79,2,0,1,0,0,0,0,0,1,79,1,14,1.16,38.38
2,21,01/27/2013,12:00 PM,53,3.97,2,0,1,0,0,0,0,0,1,79,1,14,1.16,38.38
2,22,01/27/2013,1:00 PM,35.8,3.58,2,0,1,0,0,0,0,0,1,79,1,14,1.16,38.38
2,23,01/27/2013,2:00 PM,39.3,3.67,2,0,1,0,0,0,0,0,1,79,1,14,1.16,38.38
2,24,01/27/2013,3:00 PM,8.1,2.09,2,0,1,0,0,0,0,0,1,79,1,14,1.16,38.38
2,26,01/27/2013,5:00 PM,159.8,5.07,2,0,1,0,0,0,0,0,1,79,1,14,1.16,38.38
2,27,01/27/2013,6:00 PM,4.9,1.59,2,0,1,0,0,0,0,0,1,79,1,14,1.16,38.38
2,28,01/27/2013,7:00 PM,53,3.97,2,0,1,0,0,0,0,0,1,79,1,14,1.16,38.38
2,29,01/27/2013,8:00 PM,107.5,4.68,2,0,1,0,0,0,0,0,1,79,1,14,1.16,38.38
2,30,01/27/2013,9:00 PM,3.8,1.34,2,0,1,0,0,0,0,0,1,79,1,14,1.16,38.38
2,31,01/28/2013,5:00 AM,1.8,0.59,3,0,0,1,0,0,0,0,1,79,1,14,1.16,38.38
2,32,01/28/2013,6:00 AM,73.8,4.30,3,0,0,1,0,0,0,0,1,79,1,14,1.16,38.38
2,33,01/28/2013,7:00 AM,40.6,3.70,3,0,0,1,0,0,0,0,1,79,1,14,1.16,38.38
2,34,01/28/2013,8:00 AM,70.2,4.25,3,0,0,1,0,0,0,0,1,79,1,14,1.16,38.38
2,35,01/28/2013,9:00 AM,121.5,4.80,3,0,0,1,0,0,0,0,1,79,1,14,1.16,38.38
2,36,01/28/2013,10:00 AM,0.5,-0.69,3,0,0,1,0,0,0,0,1,79,1,14,1.16,38.38
2,37,01/28/2013,11:00 AM,52,3.95,3,0,0,1,0,0,0,0,1,79,1,14,1.16,38.38
2,38,01/28/2013,12:00 PM,43.5,3.77,3,0,0,1,0,0,0,0,1,79,1,14,1.16,38.38
2,39,01/28/2013,1:00 PM,1.2,0.18,3,0,0,1,0,0,0,0,1,79,1,14,1.16,38.38
2,40,01/28/2013,2:00 PM,51.7,3.95,3,0,0,1,0,0,0,0,1,79,1,14,1.16,38.38
2,41,01/28/2013,3:00 PM,16.8,2.82,3,0,0,1,0,0,0,0,1,79,1,14,1.16,38.38
2,42,01/28/2013,4:00 PM,28.8,3.36,3,0,0,1,0,0,0,0,1,79,1,14,1.16,38.38
2,43,01/28/2013,5:00 PM,124.2,4.82,3,0,0,1,0,0,0,0,1,79,1,14,1.16,38.38
2,44,01/28/2013,6:00 PM,0.6,-0.51,3,0,0,1,0,0,0,0,1,79,1,14,1.16,38.38
2,45,01/28/2013,7:00 PM,22.1,3.10,3,0,0,1,0,0,0,0,1,79,1,14,1.16,38.38
2,46,01/28/2013,8:00 PM,49.8,3.91,3,0,0,1,0,0,0,0,1,79,1,14,1.16,38.38
2,47,01/28/2013,9:00 PM,16,2.77,3,0,0,1,0,0,0,0,1,79,1,14,1.16,38.38
2,48,01/29/2013,7:00 AM,128.8,4.86,4,0,0,0,1,0,0,0,1,79,1,14,1.16,38.38
2,49,01/29/2013,8:00 AM,45.9,3.83,4,0,0,0,1,0,0,0,1,79,1,14,1.16,38.38
2,50,01/29/2013,9:00 AM,0.3,-1.20,4,0,0,0,1,0,0,0,1,79,1,14,1.16,38.38
2,51,01/29/2013,10:00 AM,42.2,3.74,4,0,0,0,1,0,0,0,1,79,1,14,1.16,38.38
2,52,01/29/2013,11:00 AM,22.9,3.13,4,0,0,0,1,0,0,0,1,79,1,14,1.16,38.38
2,53,01/29/2013,12:00 PM,48.1,3.87,4,0,0,0,1,0,0,0,1,79,1,14,1.16,38.38
2,54,01/29/2013,1:00 PM,18.9,2.94,4,0,0,0,1,0,0,0,1,79,1,14,1.16,38.38
2,55,01/29/2013,2:00 PM,20.6,3.03,4,0,0,0,1,0,0,0,1,79,1,14,1.16,38.38
2,56,01/29/2013,3:00 PM,21.7,3.08,4,0,0,0,1,0,0,0,1,79,1,14,1.16,38.38
2,57,01/29/2013,4:00 PM,6.2,1.82,4,0,0,0,1,0,0,0,1,79,1,14,1.16,38.38
2,58,01/29/2013,5:00 PM,36.2,3.59,4,0,0,0,1,0,0,0,1,79,1,14,1.16,38.38
2,59,01/29/2013,6:00 PM,58.5,4.07,4,0,0,0,1,0,0,0,1,79,1,14,1.16,38.38
2,60,01/29/2013,7:00 PM,49.9,3.91,4,0,0,0,1,0,0,0,1,79,1,14,1.16,38.38
2,62,01/30/2013,7:00 AM,121.1,4.80,5,0,0,0,0,1,0,0,1,79,1,14,1.16,38.38
2,63,01/30/2013,8:00 AM,62.2,4.13,5,0,0,0,0,1,0,0,1,79,1,14,1.16,38.38
2,64,01/30/2013,9:00 AM,87.4,4.47,5,0,0,0,0,1,0,0,1,79,1,14,1.16,38.38
2,65,01/30/2013,10:00 AM,54.2,3.99,5,0,0,0,0,1,0,0,1,79,1,14,1.16,38.38
2,66,01/30/2013,11:00 AM,85.8,4.45,5,0,0,0,0,1,0,0,1,79,1,14,1.16,38.38
2,67,01/30/2013,12:00 PM,40.9,3.71,5,0,0,0,0,1,0,0,1,79,1,14,1.16,38.38
2,68,01/30/2013,1:00 PM,39.8,3.68,5,0,0,0,0,1,0,0,1,79,1,14,1.16,38.38
2,69,01/30/2013,2:00 PM,71,4.26,5,0,0,0,0,1,0,0,1,79,1,14,1.16,38.38
2,70,01/30/2013,3:00 PM,30.9,3.43,5,0,0,0,0,1,0,0,1,79,1,14,1.16,38.38
2,71,01/30/2013,4:00 PM,39.7,3.68,5,0,0,0,0,1,0,0,1,79,1,14,1.16,38.38
2,72,01/30/2013,5:00 PM,87.5,4.47,5,0,0,0,0,1,0,0,1,79,1,14,1.16,38.38
2,73,01/30/2013,6:00 PM,60.8,4.11,5,0,0,0,0,1,0,0,1,79,1,14,1.16,38.38
2,74,01/30/2013,7:00 PM,30.2,3.41,5,0,0,0,0,1,0,0,1,79,1,14,1.16,38.38
2,75,01/30/2013,8:00 PM,44.6,3.80,5,0,0,0,0,1,0,0,1,79,1,14,1.16,38.38
2,76,01/30/2013,9:00 PM,76.3,4.33,5,0,0,0,0,1,0,0,1,79,1,14,1.16,38.38
2,77,01/30/2013,10:00 PM,7,1.95,5,0,0,0,0,1,0,0,1,79,1,14,1.16,38.38
2,78,01/30/2013,11:00 PM,10.9,2.39,5,0,0,0,0,1,0,0,1,79,1,14,1.16,38.38
3,1,01/26/2013,8:00 AM,118.4,4.77,1,1,0,0,0,0,0,0,1,83,0,17,1.83,31.39
3,2,01/26/2013,9:00 AM,17.3,2.85,1,1,0,0,0,0,0,0,1,83,0,17,1.83,31.39
3,3,01/26/2013,10:00 AM,16.9,2.83,1,1,0,0,0,0,0,0,1,83,0,17,1.83,31.39
3,4,01/26/2013,11:00 AM,16.8,2.82,1,1,0,0,0,0,0,0,1,83,0,17,1.83,31.39
3,5,01/26/2013,12:00 PM,21.1,3.05,1,1,0,0,0,0,0,0,1,83,0,17,1.83,31.39
3,6,01/26/2013,1:00 PM,0.9,-0.11,1,1,0,0,0,0,0,0,1,83,0,17,1.83,31.39
3,7,01/26/2013,2:00 PM,28.7,3.36,1,1,0,0,0,0,0,0,1,83,0,17,1.83,31.39
3,8,01/26/2013,3:00 PM,0.1,-2.30,1,1,0,0,0,0,0,0,1,83,0,17,1.83,31.39
3,9,01/26/2013,4:00 PM,13,2.56,1,1,0,0,0,0,0,0,1,83,0,17,1.83,31.39
3,11,01/26/2013,6:00 PM,26.5,3.28,1,1,0,0,0,0,0,0,1,83,0,17,1.83,31.39
3,12,01/26/2013,7:00 PM,31.1,3.44,1,1,0,0,0,0,0,0,1,83,0,17,1.83,31.39
3,13,01/26/2013,8:00 PM,9.5,2.25,1,1,0,0,0,0,0,0,1,83,0,17,1.83,31.39
3,14,01/26/2013,9:00 PM,13.3,2.59,1,1,0,0,0,0,0,0,1,83,0,17,1.83,31.39
3,15,01/26/2013,10:00 PM,11.5,2.44,1,1,0,0,0,0,0,0,1,83,0,17,1.83,31.39
3,17,01/27/2013,8:00 AM,53,3.97,2,0,1,0,0,0,0,0,1,83,0,17,1.83,31.39
3,18,01/27/2013,9:00 AM,91,4.51,2,0,1,0,0,0,0,0,1,83,0,17,1.83,31.39
3,19,01/27/2013,10:00 AM,43.6,3.78,2,0,1,0,0,0,0,0,1,83,0,17,1.83,31.39
3,20,01/27/2013,11:00 AM,50,3.91,2,0,1,0,0,0,0,0,1,83,0,17,1.83,31.39
3,21,01/27/2013,12:00 PM,54.1,3.99,2,0,1,0,0,0,0,0,1,83,0,17,1.83,31.39
3,22,01/27/2013,1:00 PM,111.6,4.71,2,0,1,0,0,0,0,0,1,83,0,17,1.83,31.39
3,23,01/27/2013,2:00 PM,0.5,-0.69,2,0,1,0,0,0,0,0,1,83,0,17,1.83,31.39
3,25,01/27/2013,4:00 PM,61.1,4.11,2,0,1,0,0,0,0,0,1,83,0,17,1.83,31.39
3,26,01/27/2013,5:00 PM,32.1,3.47,2,0,1,0,0,0,0,0,1,83,0,17,1.83,31.39
3,27,01/27/2013,6:00 PM,7.2,1.97,2,0,1,0,0,0,0,0,1,83,0,17,1.83,31.39
3,28,01/27/2013,7:00 PM,21.1,3.05,2,0,1,0,0,0,0,0,1,83,0,17,1.83,31.39
3,29,01/27/2013,8:00 PM,23.5,3.16,2,0,1,0,0,0,0,0,1,83,0,17,1.83,31.39
3,31,01/27/2013,10:00 PM,34.9,3.55,2,0,1,0,0,0,0,0,1,83,0,17,1.83,31.39
3,32,01/27/2013,11:00 PM,18.6,2.92,2,0,1,0,0,0,0,0,1,83,0,17,1.83,31.39
3,33,01/28/2013,8:00 AM,96.2,4.57,3,0,0,1,0,0,0,0,1,83,0,17,1.83,31.39
3,34,01/28/2013,9:00 AM,53.8,3.99,3,0,0,1,0,0,0,0,1,83,0,17,1.83,31.39
3,35,01/28/2013,10:00 AM,47.5,3.86,3,0,0,1,0,0,0,0,1,83,0,17,1.83,31.39
3,36,01/28/2013,11:00 AM,0.8,-0.22,3,0,0,1,0,0,0,0,1,83,0,17,1.83,31.39
3,37,01/28/2013,12:00 PM,49.8,3.91,3,0,0,1,0,0,0,0,1,83,0,17,1.83,31.39
3,38,01/28/2013,1:00 PM,8.1,2.09,3,0,0,1,0,0,0,0,1,83,0,17,1.83,31.39
3,39,01/28/2013,2:00 PM,92.5,4.53,3,0,0,1,0,0,0,0,1,83,0,17,1.83,31.39
3,40,01/28/2013,3:00 PM,2.4,0.88,3,0,0,1,0,0,0,0,1,83,0,17,1.83,31.39
3,41,01/28/2013,4:00 PM,14.5,2.67,3,0,0,1,0,0,0,0,1,83,0,17,1.83,31.39
3,42,01/28/2013,5:00 PM,27.3,3.31,3,0,0,1,0,0,0,0,1,83,0,17,1.83,31.39
3,43,01/28/2013,6:00 PM,9.5,2.25,3,0,0,1,0,0,0,0,1,83,0,17,1.83,31.39
3,44,01/28/2013,7:00 PM,21.2,3.05,3,0,0,1,0,0,0,0,1,83,0,17,1.83,31.39
3,45,01/28/2013,8:00 PM,17.6,2.87,3,0,0,1,0,0,0,0,1,83,0,17,1.83,31.39
3,47,01/28/2013,10:00 PM,16.2,2.79,3,0,0,1,0,0,0,0,1,83,0,17,1.83,31.39
3,49,01/29/2013,7:00 AM,80.1,4.38,4,0,0,0,1,0,0,0,1,83,0,17,1.83,31.39
3,50,01/29/2013,8:00 AM,83.9,4.43,4,0,0,0,1,0,0,0,1,83,0,17,1.83,31.39
3,51,01/29/2013,9:00 AM,43,3.76,4,0,0,0,1,0,0,0,1,83,0,17,1.83,31.39
3,54,01/29/2013,12:00 PM,98.3,4.59,4,0,0,0,1,0,0,0,1,83,0,17,1.83,31.39
3,55,01/29/2013,1:00 PM,14.3,2.66,4,0,0,0,1,0,0,0,1,83,0,17,1.83,31.39
3,56,01/29/2013,2:00 PM,38.8,3.66,4,0,0,0,1,0,0,0,1,83,0,17,1.83,31.39
3,57,01/29/2013,3:00 PM,1.5,0.41,4,0,0,0,1,0,0,0,1,83,0,17,1.83,31.39
3,58,01/29/2013,4:00 PM,22.9,3.13,4,0,0,0,1,0,0,0,1,83,0,17,1.83,31.39
3,59,01/29/2013,5:00 PM,19.3,2.96,4,0,0,0,1,0,0,0,1,83,0,17,1.83,31.39
3,60,01/29/2013,6:00 PM,26.5,3.28,4,0,0,0,1,0,0,0,1,83,0,17,1.83,31.39
3,61,01/29/2013,7:00 PM,33.3,3.51,4,0,0,0,1,0,0,0,1,83,0,17,1.83,31.39
3,62,01/29/2013,8:00 PM,9.6,2.26,4,0,0,0,1,0,0,0,1,83,0,17,1.83,31.39
3,63,01/29/2013,9:00 PM,17.5,2.86,4,0,0,0,1,0,0,0,1,83,0,17,1.83,31.39
3,66,01/30/2013,7:00 AM,39.4,3.67,5,0,0,0,0,1,0,0,1,83,0,17,1.83,31.39
3,67,01/30/2013,8:00 AM,119.6,4.78,5,0,0,0,0,1,0,0,1,83,0,17,1.83,31.39
3,68,01/30/2013,9:00 AM,44.2,3.79,5,0,0,0,0,1,0,0,1,83,0,17,1.83,31.39
3,69,01/30/2013,10:00 AM,29.5,3.38,5,0,0,0,0,1,0,0,1,83,0,17,1.83,31.39
3,70,01/30/2013,11:00 AM,47.9,3.87,5,0,0,0,0,1,0,0,1,83,0,17,1.83,31.39
3,71,01/30/2013,12:00 PM,77.3,4.35,5,0,0,0,0,1,0,0,1,83,0,17,1.83,31.39
3,72,01/30/2013,1:00 PM,0.9,-0.11,5,0,0,0,0,1,0,0,1,83,0,17,1.83,31.39
3,73,01/30/2013,2:00 PM,30.5,3.42,5,0,0,0,0,1,0,0,1,83,0,17,1.83,31.39
3,74,01/30/2013,3:00 PM,28.3,3.34,5,0,0,0,0,1,0,0,1,83,0,17,1.83,31.39
3,75,01/30/2013,4:00 PM,44.2,3.79,5,0,0,0,0,1,0,0,1,83,0,17,1.83,31.39
3,76,01/30/2013,5:00 PM,8,2.08,5,0,0,0,0,1,0,0,1,83,0,17,1.83,31.39
3,77,01/30/2013,6:00 PM,1.7,0.53,5,0,0,0,0,1,0,0,1,83,0,17,1.83,31.39
3,78,01/30/2013,7:00 PM,16.6,2.81,5,0,0,0,0,1,0,0,1,83,0,17,1.83,31.39
3,79,01/30/2013,8:00 PM,12.3,2.51,5,0,0,0,0,1,0,0,1,83,0,17,1.83,31.39
3,80,01/30/2013,9:00 PM,18.1,2.90,5,0,0,0,0,1,0,0,1,83,0,17,1.83,31.39
3,81,01/30/2013,10:00 PM,2.2,0.79,5,0,0,0,0,1,0,0,1,83,0,17,1.83,31.39
3,83,01/31/2013,8:00 AM,128.4,4.86,6,0,0,0,0,0,1,0,1,83,0,17,1.83,31.39
3,84,01/31/2013,9:00 AM,45.4,3.82,6,0,0,0,0,0,1,0,1,83,0,17,1.83,31.39
3,85,01/31/2013,10:00 AM,7.5,2.01,6,0,0,0,0,0,1,0,1,83,0,17,1.83,31.39
3,88,01/31/2013,1:00 PM,48,3.87,6,0,0,0,0,0,1,0,1,83,0,17,1.83,31.39
3,89,01/31/2013,2:00 PM,53.7,3.98,6,0,0,0,0,0,1,0,1,83,0,17,1.83,31.39
3,90,01/31/2013,3:00 PM,28.4,3.35,6,0,0,0,0,0,1,0,1,83,0,17,1.83,31.39
3,91,01/31/2013,4:00 PM,28.2,3.34,6,0,0,0,0,0,1,0,1,83,0,17,1.83,31.39
3,92,01/31/2013,5:00 PM,37.3,3.62,6,0,0,0,0,0,1,0,1,83,0,17,1.83,31.39
3,93,01/31/2013,6:00 PM,18.8,2.93,6,0,0,0,0,0,1,0,1,83,0,17,1.83,31.39
3,94,01/31/2013,7:00 PM,40.9,3.71,6,0,0,0,0,0,1,0,1,83,0,17,1.83,31.39
3,95,01/31/2013,8:00 PM,0.3,-1.20,6,0,0,0,0,0,1,0,1,83,0,17,1.83,31.39
3,96,01/31/2013,9:00 PM,16.5,2.80,6,0,0,0,0,0,1,0,1,83,0,17,1.83,31.39
3,97,01/31/2013,10:00 PM,11.4,2.43,6,0,0,0,0,0,1,0,1,83,0,17,1.83,31.39
3,98,01/31/2013,11:00 PM,43.7,3.78,6,0,0,0,0,0,1,0,1,83,0,17,1.83,31.39
4,1,02/21/2013,9:00 AM,290,5.67,1,1,0,0,0,0,0,0,1,68,0,18,2.25,37.28
4,2,02/21/2013,10:00 AM,558.6,6.33,1,1,0,0,0,0,0,0,1,68,0,18,2.25,37.28
4,3,02/21/2013,11:00 AM,172,5.15,1,1,0,0,0,0,0,0,1,68,0,18,2.25,37.28
4,4,02/21/2013,12:00 PM,67.3,4.21,1,1,0,0,0,0,0,0,1,68,0,18,2.25,37.28
4,5,02/21/2013,1:00 PM,102.6,4.63,1,1,0,0,0,0,0,0,1,68,0,18,2.25,37.28
4,6,02/21/2013,2:00 PM,163.3,5.10,1,1,0,0,0,0,0,0,1,68,0,18,2.25,37.28
4,7,02/21/2013,3:00 PM,52.2,3.96,1,1,0,0,0,0,0,0,1,68,0,18,2.25,37.28
4,8,02/21/2013,4:00 PM,56.4,4.03,1,1,0,0,0,0,0,0,1,68,0,18,2.25,37.28
4,9,02/21/2013,5:00 PM,90.4,4.50,1,1,0,0,0,0,0,0,1,68,0,18,2.25,37.28
4,10,02/21/2013,6:00 PM,206.9,5.33,1,1,0,0,0,0,0,0,1,68,0,18,2.25,37.28
4,11,02/21/2013,7:00 PM,79,4.37,1,1,0,0,0,0,0,0,1,68,0,18,2.25,37.28
4,12,02/21/2013,8:00 PM,28.1,3.34,1,1,0,0,0,0,0,0,1,68,0,18,2.25,37.28
4,13,02/21/2013,9:00 PM,20.6,3.03,1,1,0,0,0,0,0,0,1,68,0,18,2.25,37.28
4,14,02/21/2013,10:00 PM,133.4,4.89,1,1,0,0,0,0,0,0,1,68,0,18,2.25,37.28
4,15,02/22/2013,7:00 AM,279.5,5.63,2,0,1,0,0,0,0,0,1,68,0,18,2.25,37.28
4,16,02/22/2013,8:00 AM,335,5.81,2,0,1,0,0,0,0,0,1,68,0,18,2.25,37.28
4,17,02/22/2013,9:00 AM,81.2,4.40,2,0,1,0,0,0,0,0,1,68,0,18,2.25,37.28
4,18,02/22/2013,10:00 AM,105.2,4.66,2,0,1,0,0,0,0,0,1,68,0,18,2.25,37.28
4,19,02/22/2013,11:00 AM,69.7,4.24,2,0,1,0,0,0,0,0,1,68,0,18,2.25,37.28
4,20,02/22/2013,12:00 PM,196.5,5.28,2,0,1,0,0,0,0,0,1,68,0,18,2.25,37.28
4,21,02/22/2013,1:00 PM,138.7,4.93,2,0,1,0,0,0,0,0,1,68,0,18,2.25,37.28
4,22,02/22/2013,2:00 PM,53.6,3.98,2,0,1,0,0,0,0,0,1,68,0,18,2.25,37.28
4,23,02/22/2013,3:00 PM,98.6,4.59,2,0,1,0,0,0,0,0,1,68,0,18,2.25,37.28
4,24,02/22/2013,4:00 PM,7.6,2.03,2,0,1,0,0,0,0,0,1,68,0,18,2.25,37.28
4,25,02/22/2013,5:00 PM,112.1,4.72,2,0,1,0,0,0,0,0,1,68,0,18,2.25,37.28
4,26,02/22/2013,6:00 PM,98.3,4.59,2,0,1,0,0,0,0,0,1,68,0,18,2.25,37.28
4,27,02/22/2013,7:00 PM,138.1,4.93,2,0,1,0,0,0,0,0,1,68,0,18,2.25,37.28
4,28,02/22/2013,8:00 PM,16,2.77,2,0,1,0,0,0,0,0,1,68,0,18,2.25,37.28
4,29,02/22/2013,9:00 PM,0.7,-0.36,2,0,1,0,0,0,0,0,1,68,0,18,2.25,37.28
4,30,02/22/2013,10:00 PM,66.6,4.20,2,0,1,0,0,0,0,0,1,68,0,18,2.25,37.28
4,31,02/23/2013,7:00 AM,283.8,5.65,3,0,0,1,0,0,0,0,1,68,0,18,2.25,37.28
4,32,02/23/2013,8:00 AM,249.1,5.52,3,0,0,1,0,0,0,0,1,68,0,18,2.25,37.28
4,33,02/23/2013,9:00 AM,181.3,5.20,3,0,0,1,0,0,0,0,1,68,0,18,2.25,37.28
4,34,02/23/2013,10:00 AM,104.2,4.65,3,0,0,1,0,0,0,0,1,68,0,18,2.25,37.28
4,35,02/23/2013,11:00 AM,76.2,4.33,3,0,0,1,0,0,0,0,1,68,0,18,2.25,37.28
4,36,02/23/2013,12:00 PM,64.5,4.17,3,0,0,1,0,0,0,0,1,68,0,18,2.25,37.28
4,37,02/23/2013,1:00 PM,55.6,4.02,3,0,0,1,0,0,0,0,1,68,0,18,2.25,37.28
4,38,02/23/2013,2:00 PM,251.2,5.53,3,0,0,1,0,0,0,0,1,68,0,18,2.25,37.28
4,39,02/23/2013,3:00 PM,161.7,5.09,3,0,0,1,0,0,0,0,1,68,0,18,2.25,37.28
4,40,02/23/2013,4:00 PM,306.6,5.73,3,0,0,1,0,0,0,0,1,68,0,18,2.25,37.28
4,41,02/23/2013,5:00 PM,81.1,4.40,3,0,0,1,0,0,0,0,1,68,0,18,2.25,37.28
4,42,02/23/2013,6:00 PM,180.2,5.19,3,0,0,1,0,0,0,0,1,68,0,18,2.25,37.28
4,43,02/23/2013,7:00 PM,41.2,3.72,3,0,0,1,0,0,0,0,1,68,0,18,2.25,37.28
4,44,02/23/2013,8:00 PM,37.3,3.62,3,0,0,1,0,0,0,0,1,68,0,18,2.25,37.28
4,45,02/23/2013,9:00 PM,124.5,4.82,3,0,0,1,0,0,0,0,1,68,0,18,2.25,37.28
4,47,02/24/2013,7:00 AM,289.3,5.67,4,0,0,0,1,0,0,0,1,68,0,18,2.25,37.28
4,48,02/24/2013,8:00 AM,307.2,5.73,4,0,0,0,1,0,0,0,1,68,0,18,2.25,37.28
4,49,02/24/2013,9:00 AM,137.1,4.92,4,0,0,0,1,0,0,0,1,68,0,18,2.25,37.28
4,50,02/24/2013,10:00 AM,78.3,4.36,4,0,0,0,1,0,0,0,1,68,0,18,2.25,37.28
4,51,02/24/2013,11:00 AM,150.8,5.02,4,0,0,0,1,0,0,0,1,68,0,18,2.25,37.28
4,52,02/24/2013,12:00 PM,111.9,4.72,4,0,0,0,1,0,0,0,1,68,0,18,2.25,37.28
4,53,02/24/2013,1:00 PM,85.8,4.45,4,0,0,0,1,0,0,0,1,68,0,18,2.25,37.28
4,54,02/24/2013,2:00 PM,138.9,4.93,4,0,0,0,1,0,0,0,1,68,0,18,2.25,37.28
4,55,02/24/2013,3:00 PM,329.4,5.80,4,0,0,0,1,0,0,0,1,68,0,18,2.25,37.28
4,56,02/24/2013,4:00 PM,186.6,5.23,4,0,0,0,1,0,0,0,1,68,0,18,2.25,37.28
4,57,02/24/2013,5:00 PM,261.5,5.57,4,0,0,0,1,0,0,0,1,68,0,18,2.25,37.28
4,58,02/24/2013,6:00 PM,124.2,4.82,4,0,0,0,1,0,0,0,1,68,0,18,2.25,37.28
4,59,02/24/2013,7:00 PM,165.2,5.11,4,0,0,0,1,0,0,0,1,68,0,18,2.25,37.28
4,60,02/24/2013,8:00 PM,185.9,5.23,4,0,0,0,1,0,0,0,1,68,0,18,2.25,37.28
4,61,02/24/2013,9:00 PM,305.1,5.72,4,0,0,0,1,0,0,0,1,68,0,18,2.25,37.28
4,62,02/24/2013,10:00 PM,224.9,5.42,4,0,0,0,1,0,0,0,1,68,0,18,2.25,37.28
4,63,02/25/2013,8:00 AM,334.6,5.81,5,0,0,0,0,1,0,0,1,68,0,18,2.25,37.28
4,64,02/25/2013,9:00 AM,276.6,5.62,5,0,0,0,0,1,0,0,1,68,0,18,2.25,37.28
4,65,02/25/2013,10:00 AM,355.7,5.87,5,0,0,0,0,1,0,0,1,68,0,18,2.25,37.28
4,66,02/25/2013,11:00 AM,32.5,3.48,5,0,0,0,0,1,0,0,1,68,0,18,2.25,37.28
4,67,02/25/2013,12:00 PM,193.5,5.27,5,0,0,0,0,1,0,0,1,68,0,18,2.25,37.28
4,68,02/25/2013,1:00 PM,104.1,4.65,5,0,0,0,0,1,0,0,1,68,0,18,2.25,37.28
4,69,02/25/2013,2:00 PM,221.2,5.40,5,0,0,0,0,1,0,0,1,68,0,18,2.25,37.28
4,70,02/25/2013,3:00 PM,197.1,5.28,5,0,0,0,0,1,0,0,1,68,0,18,2.25,37.28
4,71,02/25/2013,4:00 PM,34.8,3.55,5,0,0,0,0,1,0,0,1,68,0,18,2.25,37.28
4,72,02/25/2013,5:00 PM,144.9,4.98,5,0,0,0,0,1,0,0,1,68,0,18,2.25,37.28
4,73,02/25/2013,6:00 PM,57.9,4.06,5,0,0,0,0,1,0,0,1,68,0,18,2.25,37.28
4,74,02/25/2013,7:00 PM,1.6,0.47,5,0,0,0,0,1,0,0,1,68,0,18,2.25,37.28
4,75,02/25/2013,8:00 PM,24,3.18,5,0,0,0,0,1,0,0,1,68,0,18,2.25,37.28
4,76,02/25/2013,9:00 PM,58.7,4.07,5,0,0,0,0,1,0,0,1,68,0,18,2.25,37.28
4,77,02/25/2013,10:00 PM,54.2,3.99,5,0,0,0,0,1,0,0,1,68,0,18,2.25,37.28
4,78,02/25/2013,11:00 PM,82.1,4.41,5,0,0,0,0,1,0,0,1,68,0,18,2.25,37.28